Location: Stockholm
(59.3330°N, 18.0500°E)
Time: 10:11:40
(UTC+01:00)

FENGYUN 1C DEB - Pass Details

Date: 14 December 2023
Orbit: 841 x 915 km, 98.8° (Epoch: 21 February)

Event Time Altitude Azimuth Distance (km) Brightness Sun altitude
Exits shadow 20:15:50 15° 344° (NNW) 2,137 ? -39.0°
Drops below altitude 10° 20:16:44 10° 343° (NNW) 2,490 ? -39.2°
Sets 20:19:08 0° 343° (NNW) 3,437 ? -39.4°
